Tracking 19795 objects as of 17-Jul-2019
HD Live streaming from Space Station
objects crossing your sky now

FENGYUN 1C DEB

Track FENGYUN 1C DEB now!
10-day predictions


NORAD ID: 35240
Int'l Code: 1999-025DQY
Perigee: 831.2 km
Apogee: 912.5 km
Inclination: 99.4 °
Period: 102.2 minutes
Semi major axis: 7242 km
RCS: 0.0037 m2 (small)
Launch date: May 10, 1999
Source: People's Republic of China (PRC)
Launch site: Taiyaun Space Center, China (TSC)

Note: This is SATELLITE DEBRIS
aabbcc
Your satellite tracking list
Your tracking list is empty




NASA's NSSDC Master Catalog

Two Line Element Set (TLE):
1 35240U 99025DQY 19198.49630492  .00000374  00000-0  24260-3 0  9995
2 35240  99.4107  26.2069 0056110 202.4547 157.4164 14.08431209601230
Source of the keplerian elements: AFSPC